Goldsby, Oklahoma
Current Conditions -  °F | °C
As of 7:15 AM on Thursday 23 Oct 2014 (Local Time) from KOUN Reporting Station
Overcast Overcast  
Wind Chill: 59°   Ceiling: 6000
Heat Index: 59°   Visibility: 10mi
Dew Point: 57°   Wind: 9mph
Humidity: 94%   Direction: 160°SSE
Pressure: 30.13"   Gusts: NA
Location:  35.1254°N, 97.4912°W
Report Text: KOUN 231215Z AUTO 16008KT 10SM OVC060 15/14 A3013 RMK AO2
Loading
Personal Weather Stations






























Interactive Weather Map
Tropical Storm Tracking
New forecast layout! Learn more

10-Day Weather Forecast

Advertisements
Track Severe Weather on mobile